This is the latest recevied weather packets stored in our database for station/object IA5ITY-13. If no packets are shown the sender has not sent any weather packets the latest 10 day(s).
| Time | Temp. | Humidity | Pressure | Rain* | Wind** | Luminosity | Snow |
|---|---|---|---|---|---|---|---|
| 1777545614 | 21.11° C | 52% | 1018.2 hPa | 0 mm | - | - | - |
| 1777545309 | 21.11° C | 52% | 1018.1 hPa | 0 mm | - | - | - |
| 1777545024 | 21.11° C | 54% | 1018.1 hPa | 0 mm | - | - | - |
| 1777544710 | 22.22° C | 50% | 1018 hPa | 0 mm | - | - | - |
| 1777544413 | 22.22° C | 50% | 1018 hPa | 0 mm | - | - | - |
| 1777544113 | 21.11° C | 53% | 1018 hPa | 0 mm | - | - | - |
| 1777543812 | 20° C | 56% | 1018 hPa | 0 mm | - | - | - |
| 1777543509 | 21.11° C | 53% | 1017.9 hPa | 0 mm | - | - | - |
| 1777543235 | 22.22° C | 51% | 1018 hPa | 0 mm | - | - | - |
| 1777542909 | 22.22° C | 50% | 1018 hPa | 0 mm | - | - | - |
| 1777542613 | 22.22° C | 51% | 1018 hPa | 0 mm | - | - | - |
| 1777542313 | 22.22° C | 50% | 1018.1 hPa | 0 mm | - | - | - |
| 1777542013 | 22.22° C | 52% | 1018.1 hPa | 0 mm | - | - | - |
| 1777541709 | 22.22° C | 51% | 1018.1 hPa | 0 mm | - | - | - |
| 1777541423 | 22.22° C | 50% | 1018 hPa | 0 mm | - | - | - |
| 1777541109 | 22.22° C | 51% | 1018 hPa | 0 mm | - | - | - |
| 1777540813 | 22.22° C | 52% | 1018 hPa | 0 mm | - | - | - |
| 1777540513 | 21.11° C | 53% | 1018 hPa | 0 mm | - | - | - |
| 1777540213 | 21.11° C | 53% | 1017.9 hPa | 0 mm | - | - | - |
| 1777539909 | 21.11° C | 54% | 1017.9 hPa | 0 mm | - | - | - |
| 1777539634 | 22.22° C | 49% | 1017.7 hPa | 0 mm | - | - | - |
| 1777539309 | 21.11° C | 54% | 1017.7 hPa | 0 mm | - | - | - |
| 1777539013 | 21.11° C | 55% | 1017.7 hPa | 0 mm | - | - | - |
| 1777538713 | 21.11° C | 55% | 1017.8 hPa | 0 mm | - | - | - |
| 1777538414 | 21.11° C | 53% | 1017.7 hPa | 0 mm | - | - | - |
* Rain latest hour (hover to see other rain measurements)
** Current wind speed in m/s (hover to see current wind gust speed)